Location: Carrières
(48.9495°N, 2.0407°E)
Time: 17:41:17
(UTC+00:00)

Vanguard 1 - Visible Passes

Search period start: 23 April 2024 00:00
Search period end: 03 May 2024 00:00
Orbit: 653 x 3825 km, 34.2° (Epoch: 22 April)

Date Brightness Start Highest point End Pass type
(mag) Time Alt. Az. Time Alt. Az. Time Alt. Az.
23 Apr 13.5 01:28:45 19° S 01:38:17 26° SE 01:52:01 10° E visible
23 Apr 13.0 03:41:30 10° SW 04:01:21 42° SSE 04:14:48 10° ESE visible
23 Apr 13.9 23:34:37 11° SE 23:36:14 11° SE 23:40:21 10° ESE visible
24 Apr 13.4 01:47:12 21° S 01:58:15 31° SSE 02:13:02 10° E visible
24 Apr 13.0 04:01:17 10° SW 04:21:33 45° S 04:34:59 10° ESE visible
24 Apr 13.8 23:53:00 16° SE 23:55:50 16° SE 00:06:33 10° ESE visible
25 Apr 13.3 02:05:34 22° SSW 02:18:17 36° SSE 02:33:44 10° E visible
26 Apr 13.6 00:11:17 20° SSE 00:15:30 21° SE 00:29:12 10° E visible
26 Apr 13.2 02:23:51 21° SSW 02:38:22 41° SSE 02:54:13 10° E visible
27 Apr 13.4 00:29:30 24° SSE 00:35:13 27° SE 00:50:47 10° E visible
27 Apr 13.1 02:42:03 19° SW 02:58:31 45° SSE 03:14:32 10° E visible
27 Apr 13.9 22:35:04 11° ESE 22:35:04 11° ESE 22:37:54 10° ESE visible
28 Apr 13.3 00:47:37 27° S 00:55:02 32° SE 01:11:50 10° E visible
28 Apr 13.0 03:00:10 16° SW 03:18:42 48° S 03:34:45 10° ESE visible
28 Apr 13.7 22:53:06 16° SE 22:53:06 16° SE 23:04:05 10° E visible
29 Apr 13.2 01:05:39 29° S 01:14:57 37° SSE 01:32:34 10° E visible
29 Apr 13.0 03:18:12 12° WSW 03:38:55 50° S 03:54:53 10° ESE visible
29 Apr 13.5 23:11:03 21° SE 23:12:20 21° SE 23:26:49 10° E visible
30 Apr 13.1 01:23:36 28° SSW 01:34:56 42° SSE 01:53:04 10° E visible
30 Apr 13.0 03:37:15 10° WSW 03:59:07 51° S 04:14:56 10° ESE visible
30 Apr 13.3 23:28:54 26° SSE 23:31:52 27° SE 23:48:28 10° E visible
01 May 13.1 01:41:25 26° SSW 01:55:00 46° SSE 02:13:27 10° E visible
01 May 13.2 23:46:37 30° SSE 23:51:31 32° SE 00:09:35 10° E visible
02 May 13.0 01:59:08 22° SW 02:15:10 50° SSE 02:33:43 10° E visible
02 May 13.6 21:51:42 15° ESE 21:51:42 15° ESE 22:00:17 10° E visible
